Location: Melbourne
(37.8170°S, 144.9670°E)
Time: 02:34:17
(UTC+10:00)

Vanguard 1 Rocket - Visible Passes

Search period start: 03 July 2015 00:00
Search period end: 13 July 2015 00:00
Orbit: 654 x 4224 km, 34.3° (Epoch: 01 July)

Date Brightness Start Highest point End Pass type
(mag) Time Alt. Az. Time Alt. Az. Time Alt. Az.
03 Jul 11.6 00:48:37 20° ENE 00:48:37 20° ENE 00:53:40 10° ENE visible
03 Jul 10.9 03:05:56 42° N 03:05:56 42° N 03:23:19 10° NNE visible
03 Jul 11.3 05:23:15 16° WNW 05:30:52 18° NW 05:43:12 10° NNW visible
03 Jul 9.5 18:15:38 10° N 18:20:51 23° NE 18:27:13 14° E visible
03 Jul 9.0 20:37:06 10° WNW 20:44:31 63° N 20:44:31 63° N visible
03 Jul 10.9 23:01:35 10° W 23:41:42 - ENE 23:01:49 11° W visible
04 Jul 11.2 01:59:00 33° NNE 01:59:00 33° NNE 02:10:28 10° NE visible
04 Jul 11.1 04:16:19 29° NW 04:16:52 29° NW 04:35:28 10° N visible
04 Jul 8.9 19:27:23 10° NW 19:34:24 49° NNE 19:37:31 40° ENE visible
04 Jul 10.0 21:50:54 10° W 21:54:49 33° WNW 21:54:49 33° WNW visible
05 Jul 11.6 00:52:04 18° NE 00:52:04 18° NE 00:56:16 10° ENE visible
05 Jul 11.0 03:09:22 35° N 03:09:22 35° N 03:24:52 10° NNE visible
05 Jul 11.5 05:26:41 11° WNW 05:33:48 12° NW 05:39:49 10° NNW visible
05 Jul 9.1 18:18:20 10° NNW 18:23:48 30° NE 18:30:30 16° E visible
05 Jul 8.9 20:40:37 10° WNW 20:47:48 66° NNW 20:47:48 66° NNW visible
05 Jul 11.0 23:45:06 - ENE 23:45:06 - ENE 23:05:06 10° W visible
06 Jul 11.3 02:02:24 29° NNE 02:02:24 29° NNE 02:12:28 10° NE visible
06 Jul 11.3 04:19:43 22° NW 04:19:43 22° NW 04:35:30 10° N visible
06 Jul 8.7 19:30:43 10° NW 19:37:37 56° NNE 19:40:47 44° ENE visible
06 Jul 10.0 21:54:31 10° W 21:58:05 31° W 21:58:05 31° W visible
07 Jul 11.7 00:55:24 16° NE 00:55:24 16° NE 00:58:39 10° NE visible
07 Jul 11.2 03:12:42 28° NNW 03:12:42 28° NNW 03:25:54 10° NNE visible
07 Jul 8.8 18:21:20 10° NNW 18:26:53 37° NNE 18:33:44 17° E visible
07 Jul 8.8 20:44:11 10° WNW 20:51:02 67° NW 20:51:02 67° NW visible
07 Jul11.023:48:22ENE23:48:22ENE23:08:21Wvisible
08 Jul 11.4 02:05:40 24° NNE 02:05:40 24° NNE 02:14:06 10° NNE visible
08 Jul 11.5 04:22:58 16° NW 04:22:58 16° NW 04:34:04 10° NNW visible
08 Jul 8.5 19:34:11 10° WNW 19:40:58 63° NNE 19:44:00 47° ENE visible
08 Jul 10.0 21:58:09 10° W 22:01:18 28° W 22:01:18 28° W visible
09 Jul 11.7 00:58:36 14° NE 00:58:36 14° NE 01:00:44 10° NE visible
09 Jul 11.4 03:15:54 22° NNW 03:15:54 22° NNW 03:26:17 10° N visible
09 Jul 8.5 18:24:33 10° NW 18:30:06 44° NNE 18:36:57 18° E visible
09 Jul 8.8 20:47:49 10° W 20:54:15 64° NW 20:54:15 64° NW visible
09 Jul11.023:51:30ENE23:51:30ENE23:11:33Wvisible
10 Jul 11.5 02:08:47 20° NNE 02:08:47 20° NNE 02:15:18 10° NNE visible
10 Jul 11.6 04:26:04 10° NW 04:26:04 10° NW 04:27:28 10° NW visible
10 Jul 8.4 19:37:44 10° WNW 19:44:24 68° NNE 19:47:13 50° ENE visible
10 Jul 10.1 22:01:48 10° W 22:04:31 25° W 22:04:31 25° W visible
11 Jul 11.8 01:01:37 11° NE 01:01:37 11° NE 01:02:30 10° NE visible
11 Jul 11.5 03:18:55 16° NNW 03:18:55 16° NNW 03:25:37 10° N visible
11 Jul 8.3 18:27:56 10° NW 18:33:26 52° NNE 18:40:10 19° E visible
11 Jul 8.8 20:51:27 10° W 20:57:28 61° WNW 20:57:28 61° WNW visible
11 Jul11.123:54:25NE23:54:25NE23:14:46Wvisible
12 Jul 11.6 02:11:42 16° N 02:11:42 16° N 02:15:55 10° NNE visible
12 Jul 8.3 19:41:21 10° WNW 19:47:52 71° N 19:50:27 52° ENE visible
12 Jul 10.2 22:05:27 10° W 22:07:44 22° W 22:07:44 22° W visible
